Regional Weather Roundup
Issued by NWS

Home | Current Version | Previous Version | Text Only | Print | Product List | Glossary On
Versions: 1 2 3 4 5 6 7 8 9 10 11 12 13 14 15 16 17 18 19 20 21 22 23 24 25 26 27 28 29 30 31 32 33 34 35 36 37 38 39 40 41 42 43 44 45 46 47 48 49 50
339
ASUS43 KMPX 291710
RWRMN
WEATHER ROUNDUP FOR MINNESOTA
NATIONAL WEATHER SERVICE TWIN CITIES/CHANHASSEN MN
1200 PM CDT FRI JUL 29 2016


NOTE: "FAIR" INDICATES FEW OR NO CLOUDS BELOW 12,000 FEET WITH NO
SIGNIFICANT WEATHER AND/OR OBSTRUCTIONS TO VISIBILITY. N/A MEANS
CURRENT SKY AND/OR WEATHER CONDITIONS ARE NOT AVAILABLE.

MNZ060>063-068>070-291800-
   Twin Cities Metro

CITY           SKY/WX    TMP DP  RH WIND       PRES   REMARKS
TWIN CITIES    MOSUNNY   74  51  44 N8        30.08S
ST PAUL        SUNNY     73  49  42 NE3       30.08S
CRYSTAL        SUNNY     74  48  39 VRB5      30.07F
BLAINE         MOSUNNY   73  52  46 E8        30.08F
LAKEVILLE      SUNNY     72  57  60 NE5       30.08S
EDEN PRAIRIE   SUNNY     76  52  43 NE8       30.07F
LAKEVILLE      SUNNY     72  57  60 NE5       30.08S
SOUTH ST PAUL  SUNNY     73  49  44 NW6       30.08S
LAKE ELMO      FAIR      72  52  49 N6        30.09S
$$
MNZ001>005-007-008-013>017-022>024-027-028-291800-
   Northwest Minnesota

CITY           SKY/WX    TMP DP  RH WIND       PRES   REMARKS
BEMIDJI        PTSUNNY   73  57  56 W7        30.09S
HALLOCK        SUNNY     73  57  56 NE3       30.07F
ROSEAU         SUNNY     73  61  64 CALM      30.09S
WARROAD        SUNNY     73  63  68 NE6       30.09F
THIEF RVR FALL SUNNY     74  55  51 N5        30.10S
CROOKSTON      MOSUNNY   73  55  53 CALM      30.09F
FOSSTON        SUNNY     73  57  56 CALM      30.10S
DETROIT LAKES  SUNNY     73  61  64 W6        30.10F
MOORHEAD       SUNNY     73  59  60 N5        30.09S
PARK RAPIDS    MOSUNNY   76  57  51 S10       30.10S
MAHNOMEN       FAIR      73  56  54 CALM      30.09S
$$
MNZ006-009>011-018-025>026-291800-
   North Central Minnesota

CITY           SKY/WX    TMP DP  RH WIND       PRES   REMARKS
BAUDETTE       SUNNY     77  54  44 SE5       30.08S
FLAG ISLAND    SUNNY     73  54  49 CALM      30.08S
INTL FALLS     CLOUDY    73  56  54 E3        30.08F
WASKISH        MOSUNNY   75  64  69 W7        30.09S
BIG FORK       SUNNY     75  55  50 S6        30.10F
LONGVILLE      SUNNY     73  54  49 SE6       30.11S
GRAND RAPIDS   SUNNY     72  54  53 VRB3      30.13S
CRANE LAKE     SUNNY     72  54  53 S3        30.12S
ORR            SUNNY     73  54  49 CALM      30.08F
COOK           MOSUNNY   72  54  53 CALM      30.11S
WALKER         FAIR      72  58  60 E6        30.10S
$$
MNZ012-019>021-037-291800-
   Northeast Minnesota

CITY           SKY/WX    TMP DP  RH WIND       PRES   REMARKS
DULUTH         MOSUNNY   70  52  52 SE12      30.12S
ELY            MOSUNNY   72  48  43 CALM      30.11F
HIBBING        MOSUNNY   71  52  50 E8        30.11S
EVELETH        MOSUNNY   74  49  41 S5        30.12S
DULUTH HARBOR  SUNNY     66  57  72 NE3       30.12S
TWO HARBORS    SUNNY     73  55  53 E7        30.10S
SILVER BAY     SUNNY     72  54  53 E6        30.10S
GRAND MARAIS     N/A     66  55  67 SE3       30.11F
G MARAIS ARPRT SUNNY     68  50  52 S7        30.15S
$$
MNZ029>031-032-039>041-046>048-054>057-064-291800-
   West Central Minnesota

CITY           SKY/WX    TMP DP  RH WIND       PRES   REMARKS
FERGUS FALLS   MOSUNNY   73  63  68 S8        30.10S
WHEATON        CLOUDY    75  64  69 CALM      30.11S
MORRIS         SUNNY     77  57  50 S5        30.10S
ALEXANDRIA     SUNNY     73  56  54 VRB5      30.13S
ELBOW LAKE     PTSUNNY   72  61  67 S5        30.11S
WADENA         MOSUNNY   73  61  64 W3        30.11R
GLENWOOD       SUNNY     75  52  43 SE3       30.13S
APPLETON       SUNNY     75  57  53 E5        30.11R
BENSON         PTSUNNY   75  54  46 SE3       30.11S
ORTONVILLE     MOSUNNY   75  59  57 CALM      30.11S
MADISON        SUNNY     75  57  53 E6        30.11S
WILLMAR        FAIR      75  55  50 NE6       30.13R
$$
MNZ033>034-036-042>043-049>051-058-059-291800-
   Central Minnesota

CITY           SKY/WX    TMP DP  RH WIND       PRES   REMARKS
ST CLOUD       MOSUNNY   72  54  53 N5        30.11S
SAUK CENTRE    FAIR      73  55  54 SE5       30.12S
PAYNESVILLE    SUNNY     72  53  51 NE7       30.12S
AITKIN         PTSUNNY   75  50  41 E3        30.10F
PINE RIVER     SUNNY     73  55  53 SE7       30.14S
BRAINERD       PTSUNNY   72  53  51 E7        30.11S
STAPLES        MOSUNNY   73  54  49 S3        30.11S
LONG PRAIRIE   PTSUNNY   72  52  49 CALM      30.13S
LITTLE FALLS   PTSUNNY   72  50  46 SE7       30.12S
LITCHFIELD     SUNNY     73  55  53 NE8       30.11S
BUFFALO        SUNNY     72  50  46 NE5       30.11S
MAPLE LAKE     SUNNY     73  56  54 NE7       30.11S
HUTCHINSON     SUNNY     74  57  55 NE10      30.11S
$$
MNZ037-044-045-052-053-291800-
   East Central Minnesota

CITY           SKY/WX    TMP DP  RH WIND       PRES   REMARKS
PRINCETON      SUNNY     73  52  46 N8        30.11S
MORA           SUNNY     70  50  49 CALM      30.12F
CAMBRIDGE      SUNNY     72  55  56 N6        30.09S
RUSH CITY      SUNNY     71  52  50 E6        30.10F
MOOSE LAKE     SUNNY     72  50  46 E3        30.09F
HINCKLEY       FAIR      72  54  53 SE3       30.11S
CLOQUET        SUNNY     70  46  43 NE7       30.12S
MCGREGOR       SUNNY     72  54  53 E8        30.12S
$$
MNZ071>073-080-081-089-090-097-098-291800-
   Southwest Minnesota

CITY           SKY/WX    TMP DP  RH WIND       PRES   REMARKS
MONTEVIDEO     SUNNY     77  55  47 E5        30.13S
GRANITE FALLS  SUNNY     76  59  57 NE5       30.13S
CANBY          SUNNY     75  57  52 NE3       30.13S
MARSHALL       MOSUNNY   72  60  66 N5        30.12S
REDWOOD FALLS  SUNNY     76  56  49 E7        30.10S
OLIVIA         SUNNY     73  54  49 E7        30.11R
PIPESTONE      SUNNY     73  55  53 E6        30.12F
WINDOM         MOSUNNY   73  61  64 N9        30.10S
WORTHINGTON    CLOUDY    72  59  63 N5        30.11F
JACKSON        MOSUNNY   72  59  64 NE6       30.10S
TRACY          MOSUNNY   72  62  70 NE6       30.12S
SLAYTON        SUNNY     71  58  63 N6        30.13S
$$
MNZ065>067-074>077-082>085-091>093-291800-
   South Central Minnesota

CITY           SKY/WX    TMP DP  RH WIND       PRES   REMARKS
MANKATO        CLOUDY    73  59  60 NE10      30.08S
NEW ULM        SUNNY     73  54  49 N7        30.08S
ST JAMES       CLOUDY    70  57  64 N6        30.08F
FAIRMONT       CLOUDY    72  63  73 N9        30.07F
GLENCOE        SUNNY     73  58  57 N8        30.09S
FARIBAULT      MOSUNNY   73  63  68 N3        30.08S
OWATONNA       SUNNY     72  61  68 N7        30.07F
WASECA         CLOUDY    72  63  73 N8        30.09S
ALBERT LEA     CLOUDY    70  61  73 N7        30.06F
$$
MNZ078>079-086>088-094>096-291800-
   Southeast Minnesota

CITY           SKY/WX    TMP DP  RH WIND       PRES   REMARKS
ROCHESTER      CLOUDY    69  61  75 NE10      30.07R
RED WING       SUNNY     73  54  49 NE6       30.06R
STANTON        SUNNY     73  59  60 NE6       30.06S
DODGE CENTER   MOSUNNY  N/A N/A N/A NE9       30.06F
WINONA         MOSUNNY   72  59  64 CALM      30.05R
AUSTIN         PTSUNNY   72  59  64 N12       30.06S
PRESTON        CLOUDY    67  59  75 NE7       30.06S
$$
ABBREVIATIONS USED IN REMARKS
   TC - TEMPERATURES IN CELSIUS
  WCI - WIND CHILL INDEX
   HX - HEAT INDEX
  VSB - VISIBILITY
$$




USA.gov is the U.S. government's official web portal to all federal, state and local government web resources and services.